CSA3865 LKPR-LGAV

Flight info

Callsign CSA3865
Flight time 2h 6m
Altitude 41000
Route VOZ DCT LIKSA DCT PEPIK DCT GITAS DCT OKORA DCT BABIT DCT NEVAK DCT GINAM DCT IBISI DCT KRATO DCT MAKED DCT SIGFO UM749 ROPOX
Aircraft A333/H-SDE3GHIJ2J3J5M1RVWXY/LB2D1

Departure

Time 2026-05-06 15:35
Airport Václav Havel Airport Prague (LKPR)

Arrival

Time 2026-05-06 17:42
Airport Athens Eleftherios Venizelos International Airport (LGAV)
Time Latitude Longitude Altitude Speed Heading
2026-05-06 15:09 50.10622 14.26200 1172 ft 0 kts 34°
2026-05-06 15:25 50.10618 14.26196 1172 ft 4 kts 34°
2026-05-06 15:25 50.10596 14.26172 1177 ft 4 kts 32°
2026-05-06 15:26 50.10572 14.26152 1172 ft 4 kts 12°
2026-05-06 15:26 50.10553 14.26156 1178 ft 2 kts 304°
2026-05-06 15:26 50.10539 14.26188 1178 ft 4 kts 304°
2026-05-06 15:26 50.10535 14.26198 1175 ft 2 kts 304°
2026-05-06 15:27 50.10538 14.26160 1174 ft 4 kts 265°
2026-05-06 15:27 50.10533 14.26120 1175 ft 2 kts 259°
2026-05-06 15:27 50.10532 14.26117 1178 ft 1 kts 259°
2026-05-06 15:30 50.10525 14.26057 1174 ft 9 kts 256°
2026-05-06 15:30 50.10483 14.26031 1177 ft 8 kts 154°
2026-05-06 15:30 50.10431 14.26119 1176 ft 15 kts 127°
2026-05-06 15:30 50.10359 14.26267 1178 ft 18 kts 127°
2026-05-06 15:31 50.10291 14.26408 1176 ft 15 kts 127°
2026-05-06 15:31 50.10225 14.26545 1170 ft 18 kts 127°
2026-05-06 15:31 50.10164 14.26672 1183 ft 20 kts 127°
2026-05-06 15:32 50.10055 14.26897 1195 ft 17 kts 127°
2026-05-06 15:32 50.09985 14.27042 1201 ft 18 kts 127°
2026-05-06 15:32 50.09906 14.27204 1205 ft 20 kts 127°
2026-05-06 15:32 50.09807 14.27383 1208 ft 23 kts 135°
2026-05-06 15:33 50.09686 14.27568 1210 ft 26 kts 135°
2026-05-06 15:33 50.09561 14.27760 1215 ft 24 kts 135°
2026-05-06 15:33 50.09456 14.27922 1219 ft 19 kts 135°
2026-05-06 15:33 50.09365 14.28060 1218 ft 18 kts 135°
2026-05-06 15:34 50.09275 14.28198 1218 ft 20 kts 135°
2026-05-06 15:34 50.09142 14.28249 1215 ft 23 kts 210°
2026-05-06 15:34 50.09115 14.28025 1213 ft 25 kts 303°
2026-05-06 15:34 50.09307 14.27626 1217 ft 75 kts 307°
2026-05-06 15:35 50.09734 14.26744 1212 ft 127 kts 307°
2026-05-06 15:35 50.10345 14.25498 1443 ft 151 kts 305°
2026-05-06 15:35 50.11013 14.24136 1939 ft 167 kts 305°
2026-05-06 15:35 50.11722 14.22656 2566 ft 177 kts 307°
2026-05-06 15:36 50.12486 14.21064 2990 ft 193 kts 307°
2026-05-06 15:36 50.13332 14.19306 3242 ft 217 kts 307°
2026-05-06 15:36 50.14278 14.17342 3559 ft 240 kts 307°
2026-05-06 15:36 50.15314 14.15172 3913 ft 258 kts 308°
2026-05-06 15:37 50.16414 14.12921 4462 ft 264 kts 307°
2026-05-06 15:37 50.17498 14.10521 4996 ft 277 kts 298°
2026-05-06 15:37 50.18085 14.07655 5823 ft 279 kts 273°
2026-05-06 15:37 50.17773 14.04701 6726 ft 278 kts 244°
2026-05-06 15:38 50.16625 14.02318 7659 ft 277 kts 220°
2026-05-06 15:38 50.15124 14.00463 8550 ft 279 kts 214°
2026-05-06 15:38 50.13412 13.98948 9456 ft 281 kts 199°
2026-05-06 15:38 50.11505 13.98440 10202 ft 289 kts 178°
2026-05-06 15:39 50.09478 13.99178 10573 ft 312 kts 160°
2026-05-06 15:39 50.07422 14.00582 10904 ft 335 kts 157°
2026-05-06 15:39 50.05262 14.02160 11443 ft 347 kts 157°
2026-05-06 15:39 50.03046 14.03742 12174 ft 351 kts 158°
2026-05-06 15:40 50.00817 14.05331 12884 ft 355 kts 158°
2026-05-06 15:40 49.98558 14.06928 13562 ft 359 kts 159°
2026-05-06 15:40 49.96262 14.08546 14236 ft 366 kts 159°
2026-05-06 15:40 49.93941 14.10175 15033 ft 365 kts 159°
2026-05-06 15:41 49.91599 14.11809 15635 ft 371 kts 159°
2026-05-06 15:41 49.89230 14.13449 16214 ft 375 kts 159°
2026-05-06 15:41 49.86914 14.15284 16772 ft 382 kts 152°
2026-05-06 15:41 49.84812 14.17876 17349 ft 393 kts 138°
2026-05-06 15:42 49.83030 14.21150 17942 ft 403 kts 131°
2026-05-06 15:42 49.81335 14.24615 18454 ft 405 kts 131°
2026-05-06 15:42 49.79642 14.28115 18929 ft 406 kts 131°
2026-05-06 15:42 49.77943 14.31628 19318 ft 410 kts 131°
2026-05-06 15:43 49.76220 14.35176 19732 ft 413 kts 131°
2026-05-06 15:43 49.74486 14.38734 20159 ft 415 kts 132°
2026-05-06 15:43 49.72734 14.42311 20578 ft 418 kts 132°
2026-05-06 15:43 49.70963 14.45917 20962 ft 421 kts 133°
2026-05-06 15:44 49.69184 14.49532 21372 ft 424 kts 133°
2026-05-06 15:44 49.67402 14.53166 21755 ft 427 kts 131°
2026-05-06 15:44 49.65721 14.56982 22107 ft 431 kts 128°
2026-05-06 15:44 49.64129 14.60850 22435 ft 434 kts 127°
2026-05-06 15:45 49.62519 14.64804 22744 ft 437 kts 128°
2026-05-06 15:45 49.60899 14.68780 23095 ft 438 kts 127°
2026-05-06 15:45 49.59269 14.72762 23419 ft 440 kts 128°
2026-05-06 15:45 49.57630 14.76759 23741 ft 442 kts 128°
2026-05-06 15:46 49.55984 14.80767 24026 ft 445 kts 128°
2026-05-06 15:46 49.54325 14.84799 24329 ft 447 kts 128°
2026-05-06 15:46 49.52740 14.88954 24639 ft 451 kts 124°
2026-05-06 15:46 49.51262 14.93227 24954 ft 454 kts 122°
2026-05-06 15:47 49.49831 14.97577 25253 ft 456 kts 122°
2026-05-06 15:47 49.48417 15.01968 25524 ft 458 kts 122°
2026-05-06 15:47 49.46999 15.06384 25790 ft 461 kts 121°
2026-05-06 15:47 49.45571 15.10809 26084 ft 463 kts 122°
2026-05-06 15:48 49.44128 15.15245 26381 ft 464 kts 122°
2026-05-06 15:48 49.42695 15.19623 26656 ft 466 kts 122°
2026-05-06 15:48 49.41228 15.24080 26929 ft 468 kts 122°
2026-05-06 15:48 49.39752 15.28547 27193 ft 470 kts 122°
2026-05-06 15:49 49.38267 15.33033 27452 ft 472 kts 122°
2026-05-06 15:49 49.36775 15.37526 27732 ft 474 kts 122°
2026-05-06 15:49 49.35272 15.42045 27984 ft 476 kts 122°
2026-05-06 15:49 49.33766 15.46566 28243 ft 477 kts 122°
2026-05-06 15:50 49.32248 15.51115 28498 ft 479 kts 122°
2026-05-06 15:50 49.30725 15.55672 28755 ft 481 kts 122°
2026-05-06 15:50 49.29198 15.60235 28991 ft 483 kts 122°
2026-05-06 15:50 49.27660 15.64819 29217 ft 485 kts 122°
2026-05-06 15:51 49.26114 15.69422 29446 ft 486 kts 122°
2026-05-06 15:51 49.24563 15.74031 29643 ft 488 kts 122°
2026-05-06 15:51 49.23003 15.78659 29852 ft 490 kts 122°
2026-05-06 15:51 49.21439 15.83292 30077 ft 491 kts 122°
2026-05-06 15:52 49.19888 15.87880 30285 ft 492 kts 122°
2026-05-06 15:52 49.18307 15.92543 30434 ft 495 kts 122°
2026-05-06 15:52 49.16718 15.97221 30658 ft 496 kts 122°
2026-05-06 15:52 49.15130 16.01891 30931 ft 495 kts 122°
2026-05-06 15:53 49.13538 16.06564 31173 ft 497 kts 122°
2026-05-06 15:53 49.11941 16.11242 31436 ft 497 kts 122°
2026-05-06 15:53 49.10344 16.15912 31657 ft 497 kts 122°
2026-05-06 15:53 49.08743 16.20586 31914 ft 497 kts 122°
2026-05-06 15:54 49.07133 16.25277 32174 ft 498 kts 122°
2026-05-06 15:54 49.05525 16.29955 32472 ft 497 kts 122°
2026-05-06 15:54 49.03917 16.34623 32710 ft 497 kts 122°
2026-05-06 15:54 49.02307 16.39283 32944 ft 498 kts 123°
2026-05-06 15:55 49.00694 16.43946 33197 ft 497 kts 123°
2026-05-06 15:55 48.99077 16.48614 33399 ft 498 kts 123°
2026-05-06 15:55 48.97457 16.53280 33645 ft 498 kts 123°
2026-05-06 15:55 48.95860 16.57875 33898 ft 498 kts 123°
2026-05-06 15:56 48.94233 16.62544 34105 ft 498 kts 123°
2026-05-06 15:56 48.92609 16.67197 34376 ft 498 kts 123°
2026-05-06 15:56 48.90985 16.71842 34661 ft 496 kts 123°
2026-05-06 15:56 48.89368 16.76463 34962 ft 495 kts 123°
2026-05-06 15:57 48.87752 16.81072 35210 ft 494 kts 123°
2026-05-06 15:57 48.86131 16.85684 35460 ft 494 kts 123°
2026-05-06 15:57 48.84512 16.90283 35689 ft 493 kts 123°
2026-05-06 15:57 48.82893 16.94876 35910 ft 493 kts 123°
2026-05-06 15:58 48.81810 16.97905 36074 ft 491 kts 125°
2026-05-06 15:58 48.79948 17.02208 36273 ft 486 kts 133°
2026-05-06 15:58 48.76944 17.07142 36528 ft 476 kts 145°
2026-05-06 15:58 48.74314 17.10127 36743 ft 468 kts 154°
2026-05-06 15:59 48.72410 17.11737 36926 ft 462 kts 159°
2026-05-06 15:59 48.69531 17.13822 37267 ft 456 kts 161°
2026-05-06 15:59 48.66675 17.15729 37575 ft 452 kts 163°
2026-05-06 15:59 48.63774 17.17590 37808 ft 450 kts 163°
2026-05-06 16:00 48.60884 17.19420 37981 ft 450 kts 163°
2026-05-06 16:00 48.57988 17.21253 38154 ft 450 kts 163°
2026-05-06 16:00 48.55094 17.23098 38307 ft 451 kts 163°
2026-05-06 16:00 48.52204 17.24954 38462 ft 451 kts 163°
2026-05-06 16:01 48.49315 17.26820 38595 ft 452 kts 163°
2026-05-06 16:01 48.46458 17.28672 38754 ft 452 kts 163°
2026-05-06 16:01 48.43570 17.30545 38906 ft 452 kts 163°
2026-05-06 16:01 48.40678 17.32420 39077 ft 452 kts 163°
2026-05-06 16:02 48.37795 17.34286 39233 ft 452 kts 162°
2026-05-06 16:02 48.34897 17.36155 39326 ft 453 kts 162°
2026-05-06 16:02 48.31999 17.38024 39448 ft 453 kts 162°
2026-05-06 16:02 48.29094 17.39895 39585 ft 453 kts 162°
2026-05-06 16:03 48.23285 17.43626 39795 ft 455 kts 162°
2026-05-06 16:03 48.17450 17.47364 39977 ft 457 kts 162°
2026-05-06 16:04 48.14531 17.49233 40084 ft 457 kts 162°
2026-05-06 16:04 48.11642 17.51081 40208 ft 457 kts 162°
2026-05-06 16:04 48.08715 17.52950 40313 ft 457 kts 162°
2026-05-06 16:04 48.05787 17.54817 40416 ft 458 kts 162°
2026-05-06 16:05 48.02848 17.56688 40530 ft 458 kts 162°
2026-05-06 16:05 47.99915 17.58554 40618 ft 459 kts 162°
2026-05-06 16:05 47.94019 17.62295 40768 ft 461 kts 162°
2026-05-06 16:06 47.88094 17.66045 40828 ft 464 kts 162°
2026-05-06 16:06 47.82144 17.69804 40841 ft 464 kts 162°
2026-05-06 16:07 47.76240 17.73525 40851 ft 464 kts 162°
2026-05-06 16:07 47.70285 17.77269 40851 ft 464 kts 162°
2026-05-06 16:08 47.64328 17.81003 40859 ft 464 kts 162°
2026-05-06 16:08 47.58371 17.84728 40860 ft 464 kts 162°
2026-05-06 16:09 47.52419 17.88441 40860 ft 464 kts 162°
2026-05-06 16:09 47.46460 17.92150 40860 ft 464 kts 162°
2026-05-06 16:10 47.40504 17.95847 40861 ft 464 kts 162°
2026-05-06 16:10 47.34588 17.99510 40859 ft 464 kts 162°
2026-05-06 16:11 47.28621 18.03195 40871 ft 465 kts 162°
2026-05-06 16:11 47.22644 18.06876 40866 ft 467 kts 162°
2026-05-06 16:12 47.16646 18.10562 40868 ft 467 kts 162°
2026-05-06 16:12 47.10652 18.14237 40881 ft 467 kts 162°
2026-05-06 16:13 47.04657 18.17937 40884 ft 468 kts 161°
2026-05-06 16:13 46.98729 18.21929 40882 ft 469 kts 159°
2026-05-06 16:14 46.92830 18.26030 40887 ft 469 kts 159°
2026-05-06 16:14 46.86963 18.30083 40890 ft 469 kts 159°
2026-05-06 16:15 46.81042 18.34132 40893 ft 470 kts 159°
2026-05-06 16:15 46.75116 18.38161 40900 ft 470 kts 159°
2026-05-06 16:16 46.69184 18.42181 40897 ft 470 kts 159°
2026-05-06 16:16 46.63244 18.46197 40905 ft 470 kts 159°
2026-05-06 16:17 46.57309 18.50199 40905 ft 470 kts 159°
2026-05-06 16:17 46.51405 18.54173 40905 ft 470 kts 159°
2026-05-06 16:18 46.45466 18.58161 40916 ft 470 kts 159°
2026-05-06 16:18 46.39515 18.62147 40915 ft 470 kts 159°
2026-05-06 16:19 46.33563 18.66124 40914 ft 471 kts 159°
2026-05-06 16:19 46.27605 18.70095 40920 ft 471 kts 159°
2026-05-06 16:20 46.21654 18.74054 40924 ft 471 kts 159°
2026-05-06 16:20 46.15734 18.77982 40925 ft 471 kts 159°
2026-05-06 16:21 46.09773 18.81927 40917 ft 471 kts 159°
2026-05-06 16:21 46.03807 18.85867 40917 ft 472 kts 159°
2026-05-06 16:22 45.97806 18.89817 40887 ft 477 kts 159°
2026-05-06 16:22 45.91877 18.94299 40914 ft 486 kts 151°
2026-05-06 16:23 45.86234 18.99757 40906 ft 491 kts 149°
2026-05-06 16:23 45.80644 19.05412 40906 ft 490 kts 148°
2026-05-06 16:24 45.75106 19.11024 40900 ft 490 kts 148°
2026-05-06 16:24 45.69518 19.16639 40898 ft 491 kts 148°
2026-05-06 16:25 45.63919 19.22233 40893 ft 491 kts 148°
2026-05-06 16:25 45.58314 19.27814 40894 ft 491 kts 148°
2026-05-06 16:26 45.54349 19.31754 40894 ft 491 kts 148°
2026-05-06 16:26 45.48729 19.37329 40902 ft 491 kts 148°
2026-05-06 16:27 45.43114 19.42885 40890 ft 491 kts 149°
2026-05-06 16:27 45.37496 19.48429 40887 ft 491 kts 149°
2026-05-06 16:28 45.31873 19.53966 40901 ft 492 kts 149°
2026-05-06 16:28 45.26248 19.59491 40895 ft 492 kts 149°
2026-05-06 16:29 45.20612 19.65014 40898 ft 492 kts 149°
2026-05-06 16:29 45.15019 19.70482 40905 ft 491 kts 149°
2026-05-06 16:30 45.10299 19.75085 40906 ft 491 kts 149°
2026-05-06 16:30 45.03746 19.81460 40906 ft 491 kts 149°
2026-05-06 16:31 44.98107 19.86932 40906 ft 491 kts 149°
2026-05-06 16:31 44.92470 19.92388 40907 ft 491 kts 148°
2026-05-06 16:32 44.86830 19.97834 40908 ft 491 kts 149°
2026-05-06 16:32 44.81181 20.03274 40908 ft 491 kts 148°
2026-05-06 16:33 44.75519 20.08714 40905 ft 493 kts 148°
2026-05-06 16:34 44.67038 20.16840 40907 ft 494 kts 148°
2026-05-06 16:34 44.61353 20.22270 40907 ft 494 kts 148°
2026-05-06 16:35 44.55655 20.27700 40905 ft 493 kts 148°
2026-05-06 16:35 44.49973 20.33101 40906 ft 493 kts 148°
2026-05-06 16:36 44.44320 20.38461 40909 ft 493 kts 148°
2026-05-06 16:36 44.38635 20.43838 40917 ft 493 kts 148°
2026-05-06 16:37 44.32947 20.49206 40913 ft 493 kts 148°
2026-05-06 16:37 44.27257 20.54563 40914 ft 493 kts 148°
2026-05-06 16:38 44.21567 20.59903 40917 ft 493 kts 149°
2026-05-06 16:38 44.15823 20.65029 40914 ft 493 kts 150°
2026-05-06 16:39 44.09993 20.70054 40916 ft 493 kts 151°
2026-05-06 16:39 44.04163 20.75068 40914 ft 493 kts 151°
2026-05-06 16:40 43.98318 20.80110 40916 ft 494 kts 150°
2026-05-06 16:40 43.92476 20.85151 40912 ft 494 kts 150°
2026-05-06 16:41 43.86629 20.90187 40914 ft 495 kts 150°
2026-05-06 16:41 43.80809 20.95187 40914 ft 495 kts 150°
2026-05-06 16:42 43.74948 21.00210 40913 ft 495 kts 150°
2026-05-06 16:42 43.69078 21.05229 40915 ft 496 kts 150°
2026-05-06 16:43 43.63203 21.10240 40924 ft 497 kts 150°
2026-05-06 16:43 43.57312 21.15253 40924 ft 497 kts 150°
2026-05-06 16:44 43.51423 21.20252 40934 ft 497 kts 151°
2026-05-06 16:44 43.45524 21.25249 40942 ft 497 kts 151°
2026-05-06 16:45 43.39662 21.30203 40942 ft 497 kts 151°
2026-05-06 16:45 43.33756 21.35182 40949 ft 497 kts 151°
2026-05-06 16:46 43.27870 21.40207 40953 ft 498 kts 150°
2026-05-06 16:46 43.22040 21.45348 40953 ft 498 kts 149°
2026-05-06 16:47 43.17185 21.49645 40953 ft 499 kts 149°
2026-05-06 16:47 43.11344 21.54790 40951 ft 499 kts 149°
2026-05-06 16:48 43.05499 21.59911 40952 ft 499 kts 149°
2026-05-06 16:48 42.99685 21.64990 40961 ft 499 kts 149°
2026-05-06 16:49 42.93544 21.69257 40961 ft 494 kts 162°
2026-05-06 16:49 42.87053 21.72357 40969 ft 493 kts 165°
2026-05-06 16:50 42.80505 21.75221 40977 ft 493 kts 165°
2026-05-06 16:50 42.73998 21.78041 40980 ft 494 kts 165°
2026-05-06 16:51 42.67450 21.80903 40982 ft 494 kts 165°
2026-05-06 16:51 42.60892 21.83781 40981 ft 495 kts 165°
2026-05-06 16:52 42.54345 21.86653 40982 ft 495 kts 165°
2026-05-06 16:52 42.47794 21.89521 40983 ft 495 kts 165°
2026-05-06 16:53 42.41232 21.92385 40989 ft 496 kts 165°
2026-05-06 16:53 42.34656 21.95249 40990 ft 496 kts 165°
2026-05-06 16:54 42.28080 21.98106 40979 ft 496 kts 165°
2026-05-06 16:54 42.21544 22.00939 40981 ft 496 kts 165°
2026-05-06 16:55 42.14959 22.03787 40981 ft 497 kts 165°
2026-05-06 16:55 42.08380 22.06626 40979 ft 496 kts 165°
2026-05-06 16:56 42.01816 22.09535 40972 ft 497 kts 163°
2026-05-06 16:56 41.95294 22.12660 40975 ft 497 kts 162°
2026-05-06 16:57 41.88773 22.15823 40980 ft 497 kts 163°
2026-05-06 16:57 41.82246 22.18962 40980 ft 497 kts 163°
2026-05-06 16:58 41.75756 22.22058 40981 ft 498 kts 163°
2026-05-06 16:58 41.69231 22.25158 40980 ft 498 kts 163°
2026-05-06 16:59 41.62700 22.28254 40988 ft 498 kts 163°
2026-05-06 16:59 41.56160 22.31349 40989 ft 498 kts 163°
2026-05-06 17:00 41.49611 22.34441 40988 ft 499 kts 163°
2026-05-06 17:00 41.43051 22.37533 40998 ft 500 kts 163°
2026-05-06 17:01 41.36491 22.40618 40996 ft 500 kts 163°
2026-05-06 17:01 41.29989 22.43670 41004 ft 500 kts 163°
2026-05-06 17:02 41.23417 22.46746 41007 ft 501 kts 163°
2026-05-06 17:02 41.16838 22.49820 41006 ft 501 kts 163°
2026-05-06 17:03 41.10278 22.52980 41015 ft 502 kts 161°
2026-05-06 17:03 41.03786 22.56448 41016 ft 502 kts 160°
2026-05-06 17:04 40.97361 22.59951 41017 ft 502 kts 160°
2026-05-06 17:04 40.90870 22.63451 41018 ft 502 kts 160°
2026-05-06 17:05 40.84391 22.66911 41019 ft 502 kts 160°
2026-05-06 17:05 40.77899 22.70361 41013 ft 502 kts 160°
2026-05-06 17:06 40.71406 22.73805 41014 ft 503 kts 160°
2026-05-06 17:06 40.64950 22.77222 41024 ft 503 kts 160°
2026-05-06 17:07 40.58445 22.80661 41014 ft 503 kts 160°
2026-05-06 17:07 40.51946 22.84089 41015 ft 503 kts 160°
2026-05-06 17:08 40.45438 22.87514 41012 ft 504 kts 160°
2026-05-06 17:08 40.38926 22.90934 41014 ft 504 kts 160°
2026-05-06 17:09 40.32412 22.94347 41017 ft 504 kts 161°
2026-05-06 17:09 40.25930 22.97737 41015 ft 504 kts 161°
2026-05-06 17:10 40.19410 23.01139 41023 ft 504 kts 161°
2026-05-06 17:10 40.12882 23.04539 41013 ft 505 kts 161°
2026-05-06 17:11 40.06344 23.07937 41027 ft 506 kts 161°
2026-05-06 17:11 39.99800 23.11330 41018 ft 506 kts 161°
2026-05-06 17:12 39.93260 23.14715 41014 ft 506 kts 161°
2026-05-06 17:12 39.86759 23.18073 41016 ft 505 kts 161°
2026-05-06 17:13 39.80216 23.21445 41012 ft 506 kts 161°
2026-05-06 17:13 39.73654 23.24820 41030 ft 506 kts 161°
2026-05-06 17:14 39.67094 23.28188 41014 ft 506 kts 161°
2026-05-06 17:14 39.60587 23.31521 41013 ft 506 kts 161°
2026-05-06 17:15 39.54025 23.34876 41013 ft 506 kts 161°
2026-05-06 17:15 39.47503 23.38206 41026 ft 498 kts 161°
2026-05-06 17:16 39.41084 23.41476 41010 ft 495 kts 161°
2026-05-06 17:16 39.37880 23.43105 40838 ft 491 kts 161°
2026-05-06 17:16 39.34735 23.44704 40730 ft 482 kts 161°
2026-05-06 17:16 39.31653 23.46269 40208 ft 483 kts 161°
2026-05-06 17:17 39.28507 23.47862 39655 ft 485 kts 161°
2026-05-06 17:17 39.25365 23.49451 39147 ft 486 kts 161°
2026-05-06 17:17 39.22224 23.51039 38628 ft 485 kts 161°
2026-05-06 17:17 39.19071 23.52633 38110 ft 486 kts 161°
2026-05-06 17:18 39.15921 23.54222 37579 ft 485 kts 161°
2026-05-06 17:18 39.12771 23.55810 37051 ft 486 kts 161°
2026-05-06 17:18 39.09631 23.57394 36506 ft 485 kts 161°
2026-05-06 17:18 39.06487 23.58980 35940 ft 485 kts 161°
2026-05-06 17:19 39.03339 23.60565 35364 ft 486 kts 161°
2026-05-06 17:19 39.00175 23.62155 34752 ft 487 kts 161°
2026-05-06 17:19 38.97011 23.63744 34058 ft 489 kts 161°
2026-05-06 17:19 38.93742 23.64978 33289 ft 488 kts 173°
2026-05-06 17:20 38.90412 23.65621 32490 ft 491 kts 176°
2026-05-06 17:20 38.87008 23.66162 31666 ft 494 kts 176°
2026-05-06 17:20 38.83568 23.66680 30821 ft 497 kts 177°
2026-05-06 17:20 38.80134 23.67188 30150 ft 496 kts 176°
2026-05-06 17:21 38.76718 23.67693 29598 ft 491 kts 177°
2026-05-06 17:21 38.73337 23.68190 29013 ft 487 kts 176°
2026-05-06 17:21 38.69974 23.68683 28414 ft 485 kts 176°
2026-05-06 17:21 38.66631 23.69173 27833 ft 481 kts 176°
2026-05-06 17:22 38.63323 23.69657 27260 ft 478 kts 176°
2026-05-06 17:22 38.60020 23.70142 26668 ft 474 kts 176°
2026-05-06 17:22 38.56759 23.70618 26099 ft 471 kts 176°
2026-05-06 17:22 38.53556 23.71084 25524 ft 467 kts 176°
2026-05-06 17:23 38.50333 23.71553 24947 ft 464 kts 176°
2026-05-06 17:23 38.47136 23.72019 24366 ft 461 kts 176°
2026-05-06 17:23 38.43959 23.72482 23787 ft 457 kts 176°
2026-05-06 17:23 38.40801 23.72939 23206 ft 454 kts 176°
2026-05-06 17:24 38.37665 23.73394 22622 ft 451 kts 176°
2026-05-06 17:24 38.34550 23.73846 22040 ft 448 kts 175°
2026-05-06 17:24 38.31464 23.74294 21465 ft 445 kts 175°
2026-05-06 17:24 38.28404 23.74739 20892 ft 441 kts 175°
2026-05-06 17:25 38.25363 23.75179 20323 ft 437 kts 175°
2026-05-06 17:25 38.22348 23.75614 19745 ft 433 kts 175°
2026-05-06 17:25 38.19367 23.76067 19202 ft 429 kts 173°
2026-05-06 17:25 38.16504 23.77090 18623 ft 429 kts 156°
2026-05-06 17:26 38.13941 23.78988 18066 ft 425 kts 146°
2026-05-06 17:26 38.11520 23.81108 17514 ft 419 kts 145°
2026-05-06 17:26 38.09176 23.83203 16981 ft 414 kts 145°
2026-05-06 17:26 38.06835 23.85289 16437 ft 410 kts 145°
2026-05-06 17:27 38.04508 23.87352 15892 ft 405 kts 145°
2026-05-06 17:27 38.02204 23.89383 15373 ft 401 kts 145°
2026-05-06 17:27 37.99917 23.91392 14840 ft 396 kts 145°
2026-05-06 17:27 37.97658 23.93373 14312 ft 392 kts 145°
2026-05-06 17:28 37.95424 23.95331 13774 ft 388 kts 145°
2026-05-06 17:28 37.93214 23.97264 13258 ft 383 kts 145°
2026-05-06 17:28 37.91032 23.99172 12736 ft 379 kts 145°
2026-05-06 17:28 37.88900 24.01035 12224 ft 375 kts 145°
2026-05-06 17:29 37.86767 24.02897 11694 ft 370 kts 145°
2026-05-06 17:29 37.84657 24.04738 11194 ft 367 kts 145°
2026-05-06 17:29 37.82561 24.06566 10695 ft 363 kts 145°
2026-05-06 17:29 37.80528 24.08338 10556 ft 346 kts 145°
2026-05-06 17:30 37.78586 24.10029 10483 ft 329 kts 145°
2026-05-06 17:30 37.76737 24.11638 10341 ft 316 kts 145°
2026-05-06 17:30 37.74959 24.13185 10196 ft 305 kts 145°
2026-05-06 17:30 37.73238 24.14681 10074 ft 296 kts 145°
2026-05-06 17:31 37.71602 24.16202 9824 ft 291 kts 137°
2026-05-06 17:31 37.70385 24.18186 9461 ft 290 kts 114°
2026-05-06 17:31 37.69933 24.20660 9129 ft 285 kts 88°
2026-05-06 17:31 37.70348 24.23065 8804 ft 280 kts 63°
2026-05-06 17:32 37.71473 24.24980 8509 ft 274 kts 39°
2026-05-06 17:32 37.73098 24.26155 8196 ft 268 kts 16°
2026-05-06 17:32 37.74930 24.26429 7917 ft 265 kts 356°
2026-05-06 17:32 37.76754 24.26172 7611 ft 263 kts 351°
2026-05-06 17:33 37.78555 24.25819 7315 ft 261 kts 350°
2026-05-06 17:33 37.80352 24.25465 7020 ft 260 kts 351°
2026-05-06 17:33 37.82136 24.25122 6710 ft 258 kts 351°
2026-05-06 17:33 37.83910 24.24789 6419 ft 257 kts 351°
2026-05-06 17:34 37.85080 24.24572 6230 ft 256 kts 351°
2026-05-06 17:34 37.86843 24.24248 5925 ft 255 kts 351°
2026-05-06 17:34 37.89170 24.23823 5528 ft 254 kts 351°
2026-05-06 17:34 37.90349 24.23608 5318 ft 253 kts 351°
2026-05-06 17:35 37.92658 24.23187 4932 ft 252 kts 351°
2026-05-06 17:35 37.93834 24.22973 4727 ft 253 kts 351°
2026-05-06 17:35 37.95574 24.22656 4420 ft 253 kts 351°
2026-05-06 17:36 37.99067 24.21829 3741 ft 267 kts 343°
2026-05-06 17:36 38.00842 24.21014 3176 ft 273 kts 336°
2026-05-06 17:36 38.02533 24.20001 3005 ft 264 kts 332°
2026-05-06 17:36 38.04120 24.18852 2991 ft 263 kts 327°
2026-05-06 17:37 38.05635 24.17546 2990 ft 264 kts 323°
2026-05-06 17:37 38.07011 24.16031 2791 ft 264 kts 308°
2026-05-06 17:37 38.07773 24.13936 2264 ft 268 kts 276°
2026-05-06 17:37 38.07461 24.11682 1944 ft 252 kts 240°
2026-05-06 17:38 38.06459 24.10012 1891 ft 223 kts 227°
2026-05-06 17:38 38.05453 24.08629 1891 ft 207 kts 227°
2026-05-06 17:38 38.04486 24.07297 1891 ft 205 kts 228°
2026-05-06 17:38 38.03535 24.05948 1894 ft 205 kts 229°
2026-05-06 17:39 38.02598 24.04589 1899 ft 200 kts 229°
2026-05-06 17:39 38.01733 24.03369 1921 ft 173 kts 224°
2026-05-06 17:39 38.00856 24.02461 1761 ft 155 kts 217°
2026-05-06 17:39 38.00041 24.01663 1531 ft 142 kts 218°
2026-05-06 17:40 37.99286 24.00941 1353 ft 131 kts 219°
2026-05-06 17:40 37.98568 24.00252 1180 ft 129 kts 218°
2026-05-06 17:40 37.97853 23.99563 1008 ft 129 kts 218°
2026-05-06 17:40 37.97139 23.98876 824 ft 129 kts 218°
2026-05-06 17:41 37.96417 23.98191 657 ft 128 kts 218°
2026-05-06 17:41 37.95701 23.97514 477 ft 129 kts 218°
2026-05-06 17:41 37.94991 23.96832 335 ft 127 kts 219°
2026-05-06 17:41 37.94329 23.96202 295 ft 101 kts 216°
2026-05-06 17:42 37.93928 23.95822 283 ft 42 kts 217°
2026-05-06 17:42 37.93720 23.95625 283 ft 37 kts 217°
2026-05-06 17:42 37.93535 23.95412 287 ft 35 kts 234°
2026-05-06 17:42 37.93431 23.95153 304 ft 31 kts 246°
2026-05-06 17:43 37.93401 23.94960 306 ft 16 kts 292°
2026-05-06 17:43 37.93457 23.94841 307 ft 14 kts 303°
2026-05-06 17:43 37.93495 23.94776 308 ft 7 kts 307°
2026-05-06 17:43 37.93505 23.94758 305 ft 0 kts 306°